OPTUS C1

Last updated on Tue Sep 16 2025 00:02:45 GMT+0000 (Coordinated Universal Time)

1 27831U 03028B 25258.37336550 -.00000166 00000+0 00000+0 0 9990 2 27831 6.1964 72.7267 0005674 106.3084 105.6543 1.00273588 50300
UTC large
Height (km)
Speed (km/s)
/
Latitude / Longitude
Inclination (degrees)
Orbital Period (minutes)
Azimuth
Elevation
Range (km)
Doppler Factor

Next 0 passes for location: London (51.5072 / 0.1276)

Sorry there are no passes over London.